• Join FlightAware (Why Join?)
  • Login
  • US Flag 
08:20AM EDT


 

Airport Tracker/Info


-or-


 

Live Flight TrackerFlight Track Log ✈ N2317S ✈ 01-Aug-2013 ✈ KRDU - KBTV

Flight Track Log - Related Links

Times and Time Zones

All times are in EDT time to prevent confusion due to time zone crossing. See the N2317S flight status page for this flight to view local times or setup timezone preferences in your user account.

Time Position Orientation Groundspeed Altitude Reporting Facility
EDT Latitude Longitude Course Direction KTS MPH feet Rate Location/Type
10:34AM 35.8561 -78.8083 293° West 99 114 700  Level Washington Center
10:36AM 35.8678 -78.8419 293° West 102 117 1,400 540 Climbing Washington Center
10:37AM 35.8878 -78.8711 310° West 109 125 2,000 480 Climbing Washington Center
10:38AM 35.9058 -78.8975 310° West 120 138 2,400 420 Climbing Washington Center
10:39AM 35.9389 -78.9092 344° North 137 158 2,900 480 Climbing Washington Center
10:40AM 35.9786 -78.9108 358° North 133 153 3,500 540 Climbing Washington Center
10:41AM 36.0122 -78.8994 15° North 127 146 4,100 540 Climbing Washington Center
10:42AM 36.0361 -78.8644 50° Northeast 129 148 4,700 420 Climbing Washington Center
10:43AM 36.0581 -78.8294 52° Northeast 135 155 5,000 120 Climbing Washington Center
10:44AM 36.0961 -78.8078 25° Northeast 165 190 5,000 -60 Level Washington Center
10:45AM 36.1386 -78.7811 27° Northeast 168 193 4,900  Descending Washington Center
10:46AM 36.1789 -78.7572 26° Northeast 170 196 5,000  Climbing Washington Center
10:47AM 36.2256 -78.7281 27° Northeast 168 193 4,900 60 Descending Washington Center
10:48AM 36.2700 -78.7042 23° Northeast 168 193 5,200 420 Climbing Washington Center
10:49AM 36.3019 -78.6847 26° Northeast 154 177 5,800 540 Climbing Washington Center
10:50AM 36.3419 -78.6631 24° Northeast 144 166 6,400 540 Climbing Washington Center
10:51AM 36.3736 -78.6489 20° North 139 160 6,900 540 Climbing Washington Center
10:52AM 36.4036 -78.6164 41° Northeast 139 160 7,500 480 Climbing Washington Center
10:53AM 36.4417 -78.6050 14° North 134 154 7,900 420 Climbing Washington Center
10:54AM 36.4814 -78.5964 10° North 134 154 8,400 480 Climbing Washington Center
10:55AM 36.5214 -78.5875 10° North 134 154 8,900 240 Climbing Washington Center
10:56AM 36.5656 -78.5736 14° North 147 169 8,900  Level Washington Center
10:57AM 36.6139 -78.5547 17° North 158 182 8,900  Level Washington Center
10:58AM 36.6622 -78.5436 10° North 170 196 8,900  Level Washington Center
10:59AM 36.7147 -78.5275 14° North 170 196 8,900  Level Washington Center
11:00AM 36.7608 -78.5139 13° North 165 190 8,900  Level Washington Center
11:01AM 36.7925 -78.5072 10° North 165 190 8,900  Level Washington Center
11:02AM 36.8492 -78.4886 15° North 165 190 8,900  Level Washington Center
11:03AM 36.8975 -78.4747 13° North 165 190 8,900  Level Washington Center
11:04AM 36.9458 -78.4611 13° North 165 190 8,900  Level Washington Center
11:05AM 36.9942 -78.4472 13° North 165 190 8,900  Level Washington Center
11:06AM 37.0425 -78.4333 13° North 165 190 8,900  Level Washington Center
11:07AM 37.0803 -78.4244 11° North 165 190 8,900  Level Washington Center
11:08AM 37.1306 -78.4081 15° North 165 190 8,900  Level Washington Center
11:09AM 37.1769 -78.3967 11° North 165 190 8,900  Level Washington Center
11:10AM 37.2231 -78.3828 13° North 165 190 8,900  Level Washington Center
11:11AM 37.2736 -78.3664 14° North 165 190 8,900  Level Washington Center
11:12AM 37.3217 -78.3550 11° North 165 190 8,900  Level Washington Center
11:13AM 37.3681 -78.3408 14° North 165 190 8,900  Level Washington Center
11:14AM 37.4122 -78.3269 14° North 165 190 8,900  Level Washington Center
11:15AM 37.4561 -78.3181 North 165 190 8,900  Level Washington Center
11:16AM 37.5022 -78.3064 11° North 165 190 8,900  Level Washington Center
11:17AM 37.5500 -78.3133 353° North 160 184 8,900  Level Washington Center
11:18AM 37.5978 -78.3283 346° North 160 184 8,900  Level Washington Center
11:19AM 37.6433 -78.3353 353° North 160 184 8,900  Level Washington Center
11:20AM 37.6892 -78.3419 353° North 160 184 8,900  Level Washington Center
11:21AM 37.7264 -78.3514 349° North 165 190 8,900  Level Washington Center
11:22AM 37.7744 -78.3556 356° North 175 201 8,900  Level Washington Center
11:23AM 37.8206 -78.3417 13° North 193 222 8,900  Level Washington Center
11:24AM 37.8669 -78.3247 16° North 187 215 8,900  Level Washington Center
11:25AM 37.9108 -78.3133 12° North 177 204 8,900  Level Washington Center
11:26AM 37.9656 -78.2969 13° North 177 204 8,900  Level Washington Center
11:27AM 38.0117 -78.2828 14° North 172 198 8,900  Level Washington Center
11:28AM 38.0600 -78.2633 18° North 166 191 8,900  Level Washington Center
11:29AM 38.1064 -78.2492 14° North 166 191 8,900  Level Washington Center
11:30AM 38.1525 -78.2350 14° North 166 191 8,900  Level Washington Center
11:31AM 38.1967 -78.2206 14° North 166 191 8,900  Level Washington Center
11:32AM 38.2469 -78.2067 12° North 166 191 8,900  Level Washington Center
11:33AM 38.2953 -78.1922 13° North 166 191 8,900  Level Washington Center
11:34AM 38.3392 -78.1806 12° North 166 191 8,900  Level Washington Center
11:36AM 38.4333 -78.1500 14° North 175 201 8,900  Level Potomac TRACON
11:37AM 38.4833 -78.1333 15° North 178 205 9,000  Climbing Potomac TRACON
11:38AM 38.5333 -78.1167 15° North 176 203 9,000  Level Potomac TRACON
11:39AM 38.5833 -78.1000 15° North 174 200 9,000 -60 Level Potomac TRACON
11:40AM 38.6333 -78.0833 15° North 172 198 8,900 -60 Descending Potomac TRACON
11:41AM 38.6667 -78.0667 21° North 167 192 8,900  Level Potomac TRACON
11:42AM 38.7167 -78.0667 360° North 167 192 9,000  Climbing Potomac TRACON
11:43AM 38.7500 -78.0500 21° North 167 192 8,900 -60 Descending Potomac TRACON
11:44AM 38.8000 -78.0333 15° North 166 191 8,900  Level Potomac TRACON
11:45AM 38.8500 -78.0167 15° North 166 191 9,000  Climbing Potomac TRACON
11:46AM 38.9000 -78.0000 15° North 165 190 8,900 -60 Descending Potomac TRACON
11:47AM 38.9333 -77.9833 21° North 168 193 8,900  Level Potomac TRACON
11:48AM 38.9833 -77.9833 360° North 168 193 9,000  Climbing Potomac TRACON
11:49AM 39.0167 -77.9667 21° North 171 197 8,900 -60 Descending Potomac TRACON
11:50AM 39.0667 -77.9500 15° North 169 194 8,900  Level Potomac TRACON
11:51AM 39.1167 -77.9333 14° North 170 196 8,900  Level Potomac TRACON
11:52AM 39.1667 -77.9167 14° North 170 196 9,000  Climbing Potomac TRACON
11:53AM 39.2000 -77.9000 21° North 168 193 8,900 -60 Descending Potomac TRACON
11:54AM 39.2500 -77.8833 14° North 165 190 8,900  Level Potomac TRACON
11:55AM 39.2833 -77.8833 360° North 167 192 8,900  Level Potomac TRACON
11:56AM 39.3333 -77.8667 14° North 167 192 8,900  Level Potomac TRACON
11:57AM 39.3667 -77.8500 21° North 163 188 8,900  Level Potomac TRACON
11:58AM 39.4167 -77.8167 27° Northeast 166 191 8,900  Level Potomac TRACON
12:00PM 39.5092 -77.7436 31° Northeast 180 207 8,900  Level New York Center
12:01PM 39.5486 -77.7100 33° Northeast 175 201 8,900  Level New York Center
12:02PM 39.5881 -77.6786 32° Northeast 175 201 8,900  Level New York Center
12:03PM 39.6275 -77.6447 33° Northeast 175 201 8,900  Level New York Center
12:04PM 39.6692 -77.6111 32° Northeast 175 201 8,900  Level New York Center
12:05PM 39.7089 -77.5717 37° Northeast 175 201 8,900  Level New York Center
12:06PM 39.7528 -77.5356 32° Northeast 180 207 8,900  Level New York Center
12:07PM 39.7878 -77.5036 35° Northeast 174 200 9,000  Climbing New York Center
12:08PM 39.8317 -77.4675 32° Northeast 174 200 8,900  Descending New York Center
12:09PM 39.8686 -77.4383 31° Northeast 174 200 9,000  Climbing New York Center
12:10PM 39.9128 -77.3994 34° Northeast 174 200 9,000 -60 Level New York Center
12:12PM 39.9936 -77.3311 33° Northeast 174 200 8,900 -60 Descending New York Center
12:13PM 40.0286 -77.3019 33° Northeast 174 200 8,900  Level New York Center
12:14PM 40.0703 -77.2650 34° Northeast 174 200 8,900  Level New York Center
12:15PM 40.1075 -77.2333 33° Northeast 174 200 8,900  Level New York Center
12:16PM 40.1511 -77.1967 33° Northeast 174 200 9,000  Climbing New York Center
12:17PM 40.1861 -77.1672 33° Northeast 174 200 8,900 -60 Descending New York Center
12:18PM 40.2300 -77.1278 34° Northeast 174 200 8,900  Level New York Center
12:19PM 40.2692 -77.0958 32° Northeast 169 194 8,900  Level New York Center
12:20PM 40.3086 -77.0614 34° Northeast 174 200 9,000  Climbing New York Center
12:21PM 40.3478 -77.0269 34° Northeast 174 200 9,000  Level New York Center
12:22PM 40.3850 -76.9947 33° Northeast 174 200 9,000  Level New York Center
12:23PM 40.4264 -76.9603 32° Northeast 174 200 9,000  Level New York Center
12:24PM 40.4658 -76.9256 34° Northeast 174 200 9,000 -60 Level New York Center
12:25PM 40.5072 -76.8911 32° Northeast 174 200 8,900 -60 Descending New York Center
12:26PM 40.5464 -76.8564 34° Northeast 174 200 8,900  Level New York Center
12:27PM 40.5858 -76.8217 34° Northeast 174 200 8,900  Level New York Center
12:28PM 40.6250 -76.7867 34° Northeast 174 200 8,900  Level New York Center
12:29PM 40.6644 -76.7519 34° Northeast 174 200 8,900  Level New York Center
12:30PM 40.7036 -76.7169 34° Northeast 174 200 8,900  Level New York Center
12:31PM 40.7408 -76.6844 33° Northeast 174 200 8,900  Level New York Center
12:32PM 40.7819 -76.6497 33° Northeast 174 200 8,900  Level New York Center
12:33PM 40.8150 -76.6142 39° Northeast 174 200 8,900  Level New York Center
12:34PM 40.8564 -76.5792 33° Northeast 174 200 8,900  Level New York Center
12:35PM 40.8997 -76.5444 31° Northeast 174 200 8,900  Level New York Center
12:36PM 40.9369 -76.5064 38° Northeast 174 200 8,900  Level New York Center
12:37PM 40.9761 -76.4739 32° Northeast 174 200 8,900  Level New York Center
12:38PM 41.0153 -76.4389 34° Northeast 174 200 8,900  Level New York Center
12:39PM 41.0544 -76.4036 34° Northeast 174 200 8,900  Level New York Center
12:40PM 41.0892 -76.3733 33° Northeast 174 200 8,900  Level New York Center
12:41PM 41.1328 -76.3356 33° Northeast 174 200 8,900  Level New York Center
12:42PM 41.1719 -76.3003 34° Northeast 174 200 9,000  Climbing New York Center
12:43PM 41.2111 -76.2647 34° Northeast 174 200 9,000  Level New York Center
12:44PM 41.2458 -76.2347 33° Northeast 174 200 9,000 -60 Level New York Center
12:45PM 41.2847 -76.2019 32° Northeast 174 200 8,900 -60 Descending New York Center
12:46PM 41.3261 -76.1611 37° Northeast 174 200 8,900  Level New York Center
12:47PM 41.3653 -76.1281 32° Northeast 174 200 8,900  Level New York Center
12:48PM 41.4042 -76.0925 34° Northeast 174 200 8,900  Level New York Center
12:49PM 41.4411 -76.0622 32° Northeast 174 200 8,900  Level New York Center
12:51PM 41.4985 -76.0080 35° Northeast  Level FlightAware Approximate
12:58PM 41.7663 -75.7539 35° Northeast  Level FlightAware Approximate
12:59PM 41.8045 -75.7176 35° Northeast  Level FlightAware Approximate
01:00PM 41.8428 -75.6812 35° Northeast  Level FlightAware Approximate
01:01PM 41.8810 -75.6449 35° Northeast  Level FlightAware Approximate
01:02PM 41.9192 -75.6084 35° Northeast  Level FlightAware Approximate
01:02PM 41.9906 -75.5603 34° Northeast 183 211 8,900  Level Boston Center
01:03PM 41.9574 -75.5719 35° Northeast  Level FlightAware Approximate
01:03PM 42.0292 -75.5231 36° Northeast 198 228 8,900  Level Boston Center
01:04PM 41.9956 -75.5354 35° Northeast  Level FlightAware Approximate
01:04PM 42.0719 -75.4861 33° Northeast 198 228 8,900  Level Boston Center
01:05PM 42.0338 -75.4988 35° Northeast  Level FlightAware Approximate
01:05PM 42.1125 -75.4489 34° Northeast 188 216 8,900  Level Boston Center
01:06PM 42.0724 -75.4630 34° Northeast  Level FlightAware Approximate
01:06PM 42.1553 -75.4089 35° Northeast 183 211 8,900  Level Boston Center
01:07PM 42.1112 -75.4277 34° Northeast  Level FlightAware Approximate
01:07PM 42.2022 -75.3661 34° Northeast 178 205 8,900  Level Boston Center
01:08PM 42.1500 -75.3923 34° Northeast  Level FlightAware Approximate
01:08PM 42.2428 -75.3289 34° Northeast 173 199 8,900  Level Boston Center
01:09PM 42.2853 -75.2944 31° Northeast 173 199 8,900  Level Boston Center
01:10PM 42.3303 -75.2486 37° Northeast 184 212 8,900  Level Boston Center
01:11PM 42.3708 -75.2056 38° Northeast 184 212 8,900 240 Level Boston Center
01:12PM 42.4156 -75.1653 34° Northeast 190 219 9,400 540 Climbing Boston Center
01:13PM 42.4519 -75.1331 33° Northeast 169 194 10,000 600 Climbing Boston Center
01:14PM 42.4900 -75.1008 32° Northeast 169 194 10,700 420 Climbing Boston Center
01:15PM 42.5306 -75.0633 34° Northeast 164 189 10,900 60 Climbing Boston Center
01:16PM 42.5733 -75.0200 37° Northeast 177 204 10,900  Level Boston Center
01:17PM 42.6158 -74.9794 35° Northeast 182 209 10,900  Level Boston Center
01:18PM 42.6586 -74.9358 37° Northeast 182 209 10,900  Level Boston Center
01:19PM 42.7031 -74.8953 34° Northeast 182 209 10,900  Level Boston Center
01:20PM 42.7458 -74.8547 35° Northeast 182 209 10,900  Level Boston Center
01:21PM 42.7925 -74.8111 34° Northeast 182 209 10,900  Level Boston Center
01:22PM 42.8331 -74.7675 38° Northeast 187 215 11,000  Climbing Boston Center
01:23PM 42.8775 -74.7267 34° Northeast 187 215 10,900  Descending Boston Center
01:24PM 42.9222 -74.6858 34° Northeast 193 222 11,000  Climbing Boston Center
01:25PM 42.9669 -74.6419 36° Northeast 193 222 11,000 -60 Level Boston Center
01:26PM 43.0114 -74.5953 38° Northeast 202 232 10,900  Descending Boston Center
01:27PM 43.0539 -74.5569 33° Northeast 202 232 11,000  Climbing Boston Center
01:28PM 43.0986 -74.5131 36° Northeast 196 226 11,000 -60 Level Boston Center
01:29PM 43.1431 -74.4719 34° Northeast 196 226 10,900  Descending Boston Center
01:30PM 43.1875 -74.4278 36° Northeast 201 231 11,000  Climbing Boston Center
01:31PM 43.2319 -74.3836 36° Northeast 201 231 10,900  Descending Boston Center
01:32PM 43.2767 -74.3422 34° Northeast 201 231 11,000  Climbing Boston Center
01:33PM 43.3211 -74.2981 36° Northeast 201 231 10,900  Descending Boston Center
01:34PM 43.3656 -74.2564 34° Northeast 196 226 11,000  Climbing Boston Center
01:35PM 43.4100 -74.2150 34° Northeast 196 226 10,900 -60 Descending Boston Center
01:36PM 43.4503 -74.1675 41° Northeast 196 226 10,900  Level Boston Center
01:37PM 43.4947 -74.1258 34° Northeast 201 231 10,900  Level Boston Center
01:38PM 43.5389 -74.0897 31° Northeast 196 226 10,900  Level Boston Center
01:39PM 43.5792 -74.0481 37° Northeast 190 219 11,000  Climbing Boston Center
01:40PM 43.6214 -74.0089 34° Northeast 179 206 10,900  Descending Boston Center
01:41PM 43.6531 -73.9753 38° Northeast 173 199 11,000  Climbing Boston Center
01:42PM 43.6994 -73.9275 37° Northeast 173 199 10,900 -120 Descending Boston Center
01:43PM 43.7397 -73.8883 35° Northeast 173 199 10,800 -240 Descending Boston Center
01:44PM 43.7839 -73.8492 33° Northeast 173 199 10,500 -420 Descending Boston Center
01:45PM 43.8219 -73.8039 41° Northeast 178 205 10,000 -480 Descending Boston Center
01:46PM 43.8661 -73.7589 36° Northeast 178 205 9,600 -480 Descending Boston Center
01:47PM 43.9106 -73.7167 34° Northeast 185 213 9,100 -360 Descending Boston Center
01:48PM 43.9483 -73.6800 35° Northeast 185 213 8,900 -300 Descending Boston Center
01:49PM 43.9883 -73.6406 35° Northeast 185 213 8,500 -480 Descending Boston Center
01:50PM 44.0306 -73.6008 34° Northeast 180 207 8,000 -600 Descending Boston Center
01:51PM 44.0725 -73.5556 38° Northeast 180 207 7,400 -540 Descending Boston Center
01:52PM 44.1125 -73.5158 35° Northeast 175 201 7,000 -360 Descending Boston Center
01:53PM 44.1525 -73.4758 36° Northeast 175 201 6,700 -360 Descending Boston Center
01:54PM 44.1925 -73.4389 34° Northeast 175 201 6,300 -600 Descending Boston Center
01:55PM 44.2386 -73.4050 28° Northeast 170 196 5,600 -600 Descending Boston Center
01:56PM 44.2847 -73.3739 26° Northeast 170 196 5,100 -600 Descending Boston Center
01:57PM 44.3308 -73.3425 26° Northeast 180 207 4,400 -660 Descending Boston Center
01:58PM 44.3767 -73.3144 24° Northeast 180 207 3,900 -660 Descending Boston Center
01:59PM 44.4228 -73.2800 28° Northeast 180 207 3,200 -780 Descending Boston Center
02:00PM 44.4689 -73.2517 24° Northeast 180 207 2,400 -840 Descending Boston Center
02:02PM 44.4711 -73.1785 36° Northeast  Level Estimated
02:09PM 44.4667 -73.1500 36° Northeast  Level FlightAware Approximate
02:10PM 44.4719 -73.1533 36° Northeast  Level Estimated
02:11PM 44.4667 -73.1500 36° Northeast  Level FlightAware Approximate
02:12PM 44.4719 -73.1533 36° Northeast  Level Estimated